When you browse on this site, cookies collect data to enhance your experience and personalize the content and advertising you see.
Visit our Privacy Policy to learn more. By continuing to use the site, you agree to this use of cookies and data.
  • In France
  • List of Countries
  • For 7 days
  • Water Temperature
  • Satellite Maps
  • Weather Map
  • Weather Widgets
  • user-avatar
    Login

    Hourly Weather Plovdiv

    Today, 23 March, Saturday

    Time Temperature Precipitation Wind Pressure Humidity
    00:00 +10°C° 0 mm 1 mps 745 mmHg 63%
    01:00 +10°C° 0 mm 1 mps 745 mmHg 65%
    02:00 +9°C° 0 mm 1 mps 744 mmHg 66%
    03:00 +9°C° 0 mm 1 mps 744 mmHg 68%
    04:00 +9°C° 0 mm 1 mps 744 mmHg 70%
    05:00 +8°C° 0 mm 1 mps 744 mmHg 72%
    06:00 +9°C° 0 mm 1 mps 744 mmHg 69%
    07:00 +10°C° 0 mm 1 mps 744 mmHg 65%
    08:00 +12°C° 0 mm 1 mps 744 mmHg 61%
    09:00 +13°C° 0 mm 1 mps 744 mmHg 55%
    10:00 +15°C° 0 mm 1 mps 744 mmHg 48%
    11:00 +18°C° 0 mm 1 mps 743 mmHg 42%
    12:00 +18°C° 0 mm 1 mps 743 mmHg 39%
    13:00 +18°C° 0 mm 2 mps 743 mmHg 37%
    14:00 +20°C° 0 mm 2 mps 742 mmHg 34%
    15:00 +19°C° 0 mm 2 mps 742 mmHg 34%
    16:00 +19°C° 0 mm 2 mps 742 mmHg 35%
    17:00 +19°C° 0 mm 2 mps 741 mmHg 35%
    18:00 +17°C° 0 mm 2 mps 742 mmHg 44%
    19:00 +14°C° 0 mm 2 mps 742 mmHg 52%
    20:00 +12°C° 0 mm 2 mps 742 mmHg 60%
    21:00 +10°C° 0 mm 2 mps 742 mmHg 65%
    22:00 +10°C° 0 mm 1 mps 743 mmHg 70%
    23:00 +9°C° 0 mm 1 mps 743 mmHg 76%

    Tomorrow, 24 March, Sunday

    Time Temperature Precipitation Wind Pressure Humidity
    00:00 +9°C° 0 mm 1 mps 743 mmHg 74%
    01:00 +8°C° 0 mm 1 mps 743 mmHg 73%
    02:00 +7°C° 0 mm 0 mps 743 mmHg 71%
    03:00 +8°C° 0 mm 1 mps 743 mmHg 71%
    04:00 +7°C° 0 mm 1 mps 743 mmHg 71%
    05:00 +7°C° 0 mm 1 mps 743 mmHg 71%
    06:00 +8°C° 0 mm 1 mps 743 mmHg 67%
    07:00 +9°C° 0 mm 1 mps 743 mmHg 63%
    08:00 +10°C° 0 mm 1 mps 743 mmHg 59%
    09:00 +12°C° 0 mm 1 mps 743 mmHg 55%
    10:00 +13°C° 0 mm 2 mps 743 mmHg 50%
    11:00 +15°C° 0 mm 2 mps 743 mmHg 45%
    12:00 +16°C° 0 mm 2 mps 742 mmHg 42%
    13:00 +17°C° 0 mm 2 mps 742 mmHg 40%
    14:00 +18°C° 0 mm 2 mps 742 mmHg 37%
    15:00 +17°C° 0 mm 2 mps 741 mmHg 38%
    16:00 +17°C° 0 mm 2 mps 741 mmHg 40%
    17:00 +17°C° 0 mm 2 mps 740 mmHg 41%
    18:00 +15°C° 0 mm 1 mps 740 mmHg 46%
    19:00 +13°C° 0 mm 1 mps 740 mmHg 51%
    20:00 +12°C° 0 mm 1 mps 740 mmHg 56%
    21:00 +11°C° 0 mm 1 mps 740 mmHg 56%
    22:00 +11°C° 0 mm 1 mps 741 mmHg 56%
    23:00 +10°C° 0 mm 1 mps 741 mmHg 56%

    Day after tomorrow, 25 March, Monday

    Time Temperature Precipitation Wind Pressure Humidity
    00:00 +10°C° 0 mm 1 mps 740 mmHg 57%
    01:00 +9°C° 0 mm 1 mps 740 mmHg 57%
    02:00 +9°C° 0 mm 1 mps 740 mmHg 57%
    03:00 +9°C° 0 mm 1 mps 740 mmHg 58%
    04:00 +8°C° 0 mm 1 mps 739 mmHg 58%
    05:00 +8°C° 0 mm 1 mps 739 mmHg 59%
    06:00 +9°C° 0 mm 1 mps 739 mmHg 56%
    07:00 +11°C° 0 mm 1 mps 739 mmHg 53%
    08:00 +12°C° 0 mm 1 mps 738 mmHg 50%
    09:00 +14°C° 0 mm 1 mps 738 mmHg 45%
    10:00 +16°C° 0 mm 1 mps 738 mmHg 39%
    11:00 +19°C° 0 mm 1 mps 738 mmHg 34%
    12:00 +19°C° 0 mm 2 mps 737 mmHg 32%
    13:00 +20°C° 0 mm 2 mps 736 mmHg 31%
    14:00 +21°C° 0 mm 2 mps 735 mmHg 30%
    15:00 +20°C° 0 mm 2 mps 735 mmHg 32%
    16:00 +20°C° 0 mm 2 mps 734 mmHg 34%
    17:00 +19°C° 0 mm 2 mps 734 mmHg 35%
    18:00 +17°C° 0 mm 2 mps 734 mmHg 42%
    19:00 +15°C° 0 mm 1 mps 734 mmHg 49%
    20:00 +13°C° 0 mm 1 mps 734 mmHg 55%
    21:00 +13°C° 0 mm 1 mps 734 mmHg 59%
    22:00 +12°C° 0 mm 1 mps 734 mmHg 63%
    23:00 +12°C° 0 mm 1 mps 734 mmHg 67%

    26 March, Tuesday

    Time Temperature Precipitation Wind Pressure Humidity
    00:00 +11°C° 0 mm 1 mps 734 mmHg 69%
    01:00 +11°C° 0 mm 1 mps 734 mmHg 71%
    02:00 +11°C° 0 mm 1 mps 734 mmHg 72%
    03:00 +10°C° 0 mm 1 mps 734 mmHg 73%
    04:00 +10°C° 0 mm 1 mps 734 mmHg 74%
    05:00 +10°C° 0 mm 1 mps 734 mmHg 75%
    06:00 +11°C° 0 mm 1 mps 734 mmHg 71%
    07:00 +11°C° 0 mm 0 mps 735 mmHg 67%
    08:00 +12°C° 0 mm 0 mps 735 mmHg 63%
    09:00 +14°C° 0.1 mm 1 mps 736 mmHg 59%
    10:00 +15°C° 0.1 mm 2 mps 736 mmHg 54%
    11:00 +16°C° 0.1 mm 2 mps 736 mmHg 50%
    12:00 +16°C° 0.4 mm 2 mps 736 mmHg 53%
    13:00 +16°C° 0.4 mm 2 mps 736 mmHg 55%
    14:00 +16°C° 0.4 mm 2 mps 737 mmHg 58%
    15:00 +14°C° 0.7 mm 3 mps 737 mmHg 62%
    16:00 +13°C° 0.7 mm 3 mps 737 mmHg 67%
    17:00 +12°C° 0.7 mm 4 mps 737 mmHg 71%
    18:00 +11°C° 0.3 mm 3 mps 738 mmHg 73%
    19:00 +10°C° 0.3 mm 3 mps 739 mmHg 75%
    20:00 +9°C° 0.3 mm 2 mps 739 mmHg 77%
    21:00 +9°C° 0.3 mm 2 mps 740 mmHg 77%
    22:00 +9°C° 0.3 mm 2 mps 740 mmHg 76%
    23:00 +8°C° 0.3 mm 2 mps 741 mmHg 75%

    27 March, Wednesday

    Time Temperature Precipitation Wind Pressure Humidity
    00:00 +8°C° 0.3 mm 2 mps 741 mmHg 74%
    01:00 +7°C° 0.3 mm 2 mps 741 mmHg 73%
    02:00 +8°C° 0.3 mm 1 mps 742 mmHg 71%
    03:00 +8°C° 0.5 mm 1 mps 742 mmHg 73%
    04:00 +8°C° 0.5 mm 1 mps 742 mmHg 74%
    05:00 +7°C° 0.5 mm 1 mps 742 mmHg 75%
    06:00 +7°C° 0.4 mm 1 mps 743 mmHg 77%
    07:00 +7°C° 0.4 mm 1 mps 743 mmHg 78%
    08:00 +8°C° 0.4 mm 1 mps 743 mmHg 79%
    09:00 +8°C° 0.1 mm 1 mps 744 mmHg 77%
    10:00 +9°C° 0.1 mm 1 mps 744 mmHg 75%
    11:00 +9°C° 0.1 mm 2 mps 744 mmHg 73%
    12:00 +10°C° 0.1 mm 2 mps 744 mmHg 71%
    13:00 +10°C° 0.1 mm 2 mps 744 mmHg 69%
    14:00 +11°C° 0.1 mm 3 mps 744 mmHg 67%
    15:00 +12°C° 0.1 mm 2 mps 744 mmHg 68%
    16:00 +10°C° 0.1 mm 2 mps 744 mmHg 68%
    17:00 +10°C° 0.1 mm 2 mps 744 mmHg 68%
    18:00 +9°C° 0.1 mm 2 mps 744 mmHg 72%
    19:00 +9°C° 0.1 mm 1 mps 744 mmHg 76%
    20:00 +8°C° 0.1 mm 1 mps 745 mmHg 80%
    21:00 +8°C° 0 mm 1 mps 745 mmHg 81%
    22:00 +7°C° 0 mm 1 mps 745 mmHg 82%
    23:00 +7°C° 0 mm 1 mps 745 mmHg 84%

    28 March, Thursday

    Time Temperature Precipitation Wind Pressure Humidity
    00:00 +6°C° 0 mm 1 mps 745 mmHg 84%
    01:00 +6°C° 0 mm 1 mps 745 mmHg 85%
    02:00 +5°C° 0 mm 1 mps 745 mmHg 85%
    03:00 +5°C° 0 mm 1 mps 745 mmHg 85%
    04:00 +3°C° 0 mm 0 mps 746 mmHg 84%
    05:00 +2°C° 0 mm 0 mps 746 mmHg 84%
    06:00 +3°C° 0 mm 0 mps 746 mmHg 79%
    07:00 +4°C° 0 mm 0 mps 746 mmHg 74%
    08:00 +5°C° 0 mm 0 mps 746 mmHg 70%
    09:00 +8°C° 0 mm 1 mps 746 mmHg 63%
    10:00 +9°C° 0 mm 1 mps 746 mmHg 57%
    11:00 +9°C° 0 mm 2 mps 747 mmHg 51%
    12:00 +10°C° 0 mm 2 mps 746 mmHg 50%
    13:00 +12°C° 0 mm 2 mps 746 mmHg 48%
    14:00 +12°C° 0 mm 2 mps 746 mmHg 46%
    15:00 +12°C° 0 mm 2 mps 745 mmHg 49%
    16:00 +10°C° 0 mm 2 mps 745 mmHg 51%
    17:00 +10°C° 0 mm 2 mps 745 mmHg 53%
    18:00 +9°C° 0 mm 2 mps 745 mmHg 58%
    19:00 +8°C° 0 mm 1 mps 746 mmHg 63%
    20:00 +7°C° 0 mm 1 mps 746 mmHg 68%
    21:00 +6°C° 0 mm 1 mps 746 mmHg 71%
    22:00 +5°C° 0 mm 1 mps 746 mmHg 74%
    23:00 +4°C° 0 mm 1 mps 747 mmHg 77%
    Show more